Year,Month,Day,Hour,Minute,Value (Times are PST for temperature in C)
2019,05,30,00,00,13.70
2019,05,30,00,01,13.70
2019,05,30,00,02,13.70
2019,05,30,00,03,13.70
2019,05,30,00,04,13.60
2019,05,30,00,05,13.60
2019,05,30,00,06,13.60
2019,05,30,00,07,13.60
2019,05,30,00,08,13.60
2019,05,30,00,09,13.60
2019,05,30,00,10,13.50
2019,05,30,00,11,13.50
2019,05,30,00,12,13.50
2019,05,30,00,13,13.40
2019,05,30,00,14,13.40
2019,05,30,00,15,13.40
2019,05,30,00,16,13.30
2019,05,30,00,17,13.30
2019,05,30,00,18,13.30
2019,05,30,00,19,13.30
2019,05,30,00,20,13.30
2019,05,30,00,21,13.30
2019,05,30,00,22,13.30
2019,05,30,00,23,13.30
2019,05,30,00,24,13.30
2019,05,30,00,25,13.30
2019,05,30,00,26,13.30
2019,05,30,00,27,13.30
2019,05,30,00,28,13.30
2019,05,30,00,29,13.30
2019,05,30,00,30,13.30
2019,05,30,00,31,13.30
2019,05,30,00,32,13.30
2019,05,30,00,33,13.30
2019,05,30,00,34,13.30
2019,05,30,00,35,13.30
2019,05,30,00,36,13.30
2019,05,30,00,37,13.30
2019,05,30,00,38,13.30
2019,05,30,00,39,13.20
2019,05,30,00,40,13.20
2019,05,30,00,41,13.20
2019,05,30,00,42,13.20
2019,05,30,00,43,13.20
2019,05,30,00,44,13.20
2019,05,30,00,45,13.20
2019,05,30,00,46,13.10
2019,05,30,00,47,13.10
2019,05,30,00,48,13.10
2019,05,30,00,49,13.10
2019,05,30,00,50,13.10
2019,05,30,00,51,13.00
2019,05,30,00,52,13.00
2019,05,30,00,53,13.00
2019,05,30,00,54,13.00
2019,05,30,00,55,12.90
2019,05,30,00,56,12.90
2019,05,30,00,57,12.90
2019,05,30,00,58,12.90
2019,05,30,00,59,12.90
2019,05,30,01,00,12.90
2019,05,30,01,01,12.90
2019,05,30,01,02,12.80
2019,05,30,01,03,12.80
2019,05,30,01,04,12.80
2019,05,30,01,05,12.70
2019,05,30,01,06,12.70
2019,05,30,01,07,12.70
2019,05,30,01,08,12.70
2019,05,30,01,09,12.60
2019,05,30,01,10,12.60
2019,05,30,01,11,12.60
2019,05,30,01,12,12.50
2019,05,30,01,13,12.50
2019,05,30,01,14,12.50
2019,05,30,01,15,12.40
2019,05,30,01,16,12.40
2019,05,30,01,17,12.40
2019,05,30,01,18,12.40
2019,05,30,01,19,12.40
2019,05,30,01,20,12.30
2019,05,30,01,21,12.30
2019,05,30,01,22,12.30
2019,05,30,01,23,12.30
2019,05,30,01,24,12.30
2019,05,30,01,25,12.30
2019,05,30,01,26,12.30
2019,05,30,01,27,12.30
2019,05,30,01,28,12.30
2019,05,30,01,29,12.30
2019,05,30,01,30,12.20
2019,05,30,01,31,12.20
2019,05,30,01,32,12.20
2019,05,30,01,33,12.20
2019,05,30,01,34,12.20
2019,05,30,01,35,12.20
2019,05,30,01,36,12.20
2019,05,30,01,37,12.20
2019,05,30,01,38,12.10
2019,05,30,01,39,12.10
2019,05,30,01,40,12.10
2019,05,30,01,41,12.10
2019,05,30,01,42,12.00
2019,05,30,01,43,12.00
2019,05,30,01,44,12.00
2019,05,30,01,45,11.90
2019,05,30,01,46,11.90
2019,05,30,01,47,11.90
2019,05,30,01,48,11.90
2019,05,30,01,49,11.90
2019,05,30,01,50,11.90
2019,05,30,01,51,11.90
2019,05,30,01,52,11.90
2019,05,30,01,53,11.90
2019,05,30,01,54,11.90
2019,05,30,01,55,11.90
2019,05,30,01,56,11.90
2019,05,30,01,57,11.80
2019,05,30,01,58,11.80
2019,05,30,01,59,11.80
2019,05,30,02,00,11.80
2019,05,30,02,01,11.80
2019,05,30,02,02,11.80
2019,05,30,02,03,11.70
2019,05,30,02,04,11.70
2019,05,30,02,05,11.70
2019,05,30,02,06,11.70
2019,05,30,02,07,11.70
2019,05,30,02,08,11.60
2019,05,30,02,09,11.60
2019,05,30,02,10,11.60
2019,05,30,02,11,11.60
2019,05,30,02,12,11.60
2019,05,30,02,13,11.50
2019,05,30,02,14,11.50
2019,05,30,02,15,11.40
2019,05,30,02,16,11.40
2019,05,30,02,17,11.40
2019,05,30,02,18,11.40
2019,05,30,02,19,11.40
2019,05,30,02,20,11.30
2019,05,30,02,21,11.40
2019,05,30,02,22,11.30
2019,05,30,02,23,11.30
2019,05,30,02,24,11.30
2019,05,30,02,25,11.30
2019,05,30,02,26,11.30
2019,05,30,02,27,11.30
2019,05,30,02,28,11.30
2019,05,30,02,29,11.30
2019,05,30,02,30,11.30
2019,05,30,02,31,11.30
2019,05,30,02,32,11.30
2019,05,30,02,33,11.30
2019,05,30,02,34,11.30
2019,05,30,02,35,11.30
2019,05,30,02,36,11.40
2019,05,30,02,37,11.30
2019,05,30,02,38,11.30
2019,05,30,02,39,11.30
2019,05,30,02,40,11.30
2019,05,30,02,41,11.30
2019,05,30,02,42,11.30
2019,05,30,02,43,11.30
2019,05,30,02,44,11.30
2019,05,30,02,45,11.30
2019,05,30,02,46,11.30
2019,05,30,02,47,11.30
2019,05,30,02,48,11.30
2019,05,30,02,49,11.30
2019,05,30,02,50,11.30
2019,05,30,02,51,11.30
2019,05,30,02,52,11.30
2019,05,30,02,53,11.30
2019,05,30,02,54,11.20
2019,05,30,02,55,11.20
2019,05,30,02,56,11.20
2019,05,30,02,57,11.20
2019,05,30,02,58,11.20
2019,05,30,02,59,11.20
2019,05,30,03,00,11.20
2019,05,30,03,01,11.20
2019,05,30,03,02,11.20
2019,05,30,03,03,11.20
2019,05,30,03,04,11.20
2019,05,30,03,05,11.20
2019,05,30,03,06,11.20
2019,05,30,03,07,11.20
2019,05,30,03,08,11.20
2019,05,30,03,09,11.20
2019,05,30,03,10,11.10
2019,05,30,03,11,11.10
2019,05,30,03,12,11.10
2019,05,30,03,13,11.10
2019,05,30,03,14,11.10
2019,05,30,03,15,11.10
2019,05,30,03,16,11.10
2019,05,30,03,17,11.10
2019,05,30,03,18,11.10
2019,05,30,03,19,11.20
2019,05,30,03,20,11.20
2019,05,30,03,21,11.20
2019,05,30,03,22,11.20
2019,05,30,03,23,11.10
2019,05,30,03,24,11.20
2019,05,30,03,25,11.10
2019,05,30,03,26,11.10
2019,05,30,03,27,11.10
2019,05,30,03,28,11.10
2019,05,30,03,29,11.10
2019,05,30,03,30,11.10
2019,05,30,03,31,11.10
2019,05,30,03,32,11.10
2019,05,30,03,33,11.10
2019,05,30,03,34,11.10
2019,05,30,03,35,11.10
2019,05,30,03,36,11.20
2019,05,30,03,37,11.20
2019,05,30,03,38,11.20
2019,05,30,03,39,11.30
2019,05,30,03,40,11.30
2019,05,30,03,41,11.30
2019,05,30,03,42,11.30
2019,05,30,03,43,11.30
2019,05,30,03,44,11.30
2019,05,30,03,45,11.30
2019,05,30,03,46,11.30
2019,05,30,03,47,11.30
2019,05,30,03,48,11.30
2019,05,30,03,49,11.30
2019,05,30,03,50,11.30
2019,05,30,03,51,11.30
2019,05,30,03,52,11.30
2019,05,30,03,53,11.30
2019,05,30,03,54,11.30
2019,05,30,03,55,11.20
2019,05,30,03,56,11.20
2019,05,30,03,57,11.20
2019,05,30,03,58,11.20
2019,05,30,03,59,11.20
2019,05,30,04,00,11.10
2019,05,30,04,01,11.10
2019,05,30,04,02,11.10
2019,05,30,04,03,11.10
2019,05,30,04,04,11.10
2019,05,30,04,05,11.10
2019,05,30,04,06,11.10
2019,05,30,04,07,11.00
2019,05,30,04,08,11.00
2019,05,30,04,09,11.00
2019,05,30,04,10,11.00
2019,05,30,04,11,11.00
2019,05,30,04,12,11.00
2019,05,30,04,13,11.00
2019,05,30,04,14,11.00
2019,05,30,04,15,11.00
2019,05,30,04,16,11.10
2019,05,30,04,17,11.10
2019,05,30,04,18,11.10
2019,05,30,04,19,11.10
2019,05,30,04,20,11.10
2019,05,30,04,21,11.10
2019,05,30,04,22,11.10
2019,05,30,04,23,11.10
2019,05,30,04,24,11.20
2019,05,30,04,25,11.20
2019,05,30,04,26,11.20
2019,05,30,04,27,11.20
2019,05,30,04,28,11.30
2019,05,30,04,29,11.20
2019,05,30,04,30,11.20
2019,05,30,04,31,11.20
2019,05,30,04,32,11.20
2019,05,30,04,33,11.20
2019,05,30,04,34,11.20
2019,05,30,04,35,11.20
2019,05,30,04,36,11.20
2019,05,30,04,37,11.30
2019,05,30,04,38,11.30
2019,05,30,04,39,11.30
2019,05,30,04,40,11.30
2019,05,30,04,41,11.30
2019,05,30,04,42,11.30
2019,05,30,04,43,11.30
2019,05,30,04,44,11.30
2019,05,30,04,45,11.40
2019,05,30,04,46,11.40
2019,05,30,04,47,11.40
2019,05,30,04,48,11.30
2019,05,30,04,49,11.30
2019,05,30,04,50,11.30
2019,05,30,04,51,11.30
2019,05,30,04,52,11.30
2019,05,30,04,53,11.30
2019,05,30,04,54,11.20
2019,05,30,04,55,11.20
2019,05,30,04,56,11.20
2019,05,30,04,57,11.20
2019,05,30,04,58,11.10
2019,05,30,04,59,11.10
2019,05,30,05,00,11.10
2019,05,30,05,01,11.10
2019,05,30,05,02,11.10
2019,05,30,05,03,11.10
2019,05,30,05,04,11.10
2019,05,30,05,05,11.10
2019,05,30,05,06,11.00
2019,05,30,05,07,11.00
2019,05,30,05,08,11.00
2019,05,30,05,09,11.00
2019,05,30,05,10,10.90
2019,05,30,05,11,10.90
2019,05,30,05,12,10.90
2019,05,30,05,13,10.90
2019,05,30,05,14,10.90
2019,05,30,05,15,10.90
2019,05,30,05,16,10.90
2019,05,30,05,17,10.90
2019,05,30,05,18,10.80
2019,05,30,05,19,10.80
2019,05,30,05,20,10.80
2019,05,30,05,21,10.80
2019,05,30,05,22,10.70
2019,05,30,05,23,10.70
2019,05,30,05,24,10.70
2019,05,30,05,25,10.70
2019,05,30,05,26,10.60
2019,05,30,05,27,10.60
2019,05,30,05,28,10.60
2019,05,30,05,29,10.60
2019,05,30,05,30,10.60
2019,05,30,05,31,10.60
2019,05,30,05,32,10.60
2019,05,30,05,33,10.50
2019,05,30,05,34,10.50
2019,05,30,05,35,10.50
2019,05,30,05,36,10.50
2019,05,30,05,37,10.50
2019,05,30,05,38,10.40
2019,05,30,05,39,10.40
2019,05,30,05,40,10.40
2019,05,30,05,41,10.40
2019,05,30,05,42,10.40
2019,05,30,05,43,10.40
2019,05,30,05,44,10.40
2019,05,30,05,45,10.40
2019,05,30,05,46,10.40
2019,05,30,05,47,10.40
2019,05,30,05,48,10.40
2019,05,30,05,49,10.40
2019,05,30,05,50,10.40
2019,05,30,05,51,10.40
2019,05,30,05,52,10.40
2019,05,30,05,53,10.50
2019,05,30,05,54,10.50
2019,05,30,05,55,10.50
2019,05,30,05,56,10.50
2019,05,30,05,57,10.60
2019,05,30,05,58,10.60
2019,05,30,05,59,10.70
2019,05,30,06,00,10.80
2019,05,30,06,01,10.80
2019,05,30,06,02,10.90
2019,05,30,06,03,10.90
2019,05,30,06,04,10.90
2019,05,30,06,05,11.00
2019,05,30,06,06,11.00
2019,05,30,06,07,11.10
2019,05,30,06,08,11.10
2019,05,30,06,09,11.10
2019,05,30,06,10,11.10
2019,05,30,06,11,11.10
2019,05,30,06,12,11.20
2019,05,30,06,13,11.20
2019,05,30,06,14,11.20
2019,05,30,06,15,11.20
2019,05,30,06,16,11.20
2019,05,30,06,17,11.30
2019,05,30,06,18,11.30
2019,05,30,06,19,11.30
2019,05,30,06,20,11.30
2019,05,30,06,21,11.40
2019,05,30,06,22,11.40
2019,05,30,06,23,11.50
2019,05,30,06,24,11.50
2019,05,30,06,25,11.60
2019,05,30,06,26,11.60
2019,05,30,06,27,11.70
2019,05,30,06,28,11.70
2019,05,30,06,29,11.80
2019,05,30,06,30,11.80
2019,05,30,06,31,11.80
2019,05,30,06,32,11.90
2019,05,30,06,33,11.90
2019,05,30,06,34,12.00
2019,05,30,06,35,12.00
2019,05,30,06,36,12.10
2019,05,30,06,37,12.10
2019,05,30,06,38,12.10
2019,05,30,06,39,12.20
2019,05,30,06,40,12.20
2019,05,30,06,41,12.30
2019,05,30,06,42,12.30
2019,05,30,06,43,12.30
2019,05,30,06,44,12.40
2019,05,30,06,45,12.40
2019,05,30,06,46,12.50
2019,05,30,06,47,12.50
2019,05,30,06,48,12.60
2019,05,30,06,49,12.60
2019,05,30,06,50,12.70
2019,05,30,06,51,12.70
2019,05,30,06,52,12.80
2019,05,30,06,53,12.80
2019,05,30,06,54,12.90
2019,05,30,06,55,12.90
2019,05,30,06,56,13.00
2019,05,30,06,57,13.00
2019,05,30,06,58,13.10
2019,05,30,06,59,13.10
2019,05,30,07,00,13.20
2019,05,30,07,01,13.20
2019,05,30,07,02,13.20
2019,05,30,07,03,13.30
2019,05,30,07,04,13.30
2019,05,30,07,05,13.30
2019,05,30,07,06,13.40
2019,05,30,07,07,13.40
2019,05,30,07,08,13.50
2019,05,30,07,09,13.50
2019,05,30,07,10,13.60
2019,05,30,07,11,13.60
2019,05,30,07,12,13.70
2019,05,30,07,13,13.70
2019,05,30,07,14,13.80
2019,05,30,07,15,13.90
2019,05,30,07,16,13.90
2019,05,30,07,17,13.90
2019,05,30,07,18,14.00
2019,05,30,07,19,14.00
2019,05,30,07,20,14.10
2019,05,30,07,21,14.10
2019,05,30,07,22,14.20
2019,05,30,07,23,14.20
2019,05,30,07,24,14.20
2019,05,30,07,25,14.20
2019,05,30,07,26,14.30
2019,05,30,07,27,14.30
2019,05,30,07,28,14.30
2019,05,30,07,29,14.40
2019,05,30,07,30,14.40
2019,05,30,07,31,14.40
2019,05,30,07,32,14.50
2019,05,30,07,33,14.50
2019,05,30,07,34,14.50
2019,05,30,07,35,14.60
2019,05,30,07,36,14.60
2019,05,30,07,37,14.60
2019,05,30,07,38,14.60
2019,05,30,07,39,14.60
2019,05,30,07,40,14.60
2019,05,30,07,41,14.60
2019,05,30,07,42,14.60
2019,05,30,07,43,14.70
2019,05,30,07,44,14.70
2019,05,30,07,45,14.70
2019,05,30,07,46,14.80
2019,05,30,07,47,14.80
2019,05,30,07,48,14.80
2019,05,30,07,49,14.80
2019,05,30,07,50,14.90
2019,05,30,07,51,14.90
2019,05,30,07,52,15.00
2019,05,30,07,53,15.00
2019,05,30,07,54,15.00
2019,05,30,07,55,15.00
2019,05,30,07,56,15.00
2019,05,30,07,57,15.10
2019,05,30,07,58,15.10
2019,05,30,07,59,15.20
2019,05,30,08,00,15.20
2019,05,30,08,01,15.20
2019,05,30,08,02,15.30
2019,05,30,08,03,15.30
2019,05,30,08,04,15.40
2019,05,30,08,05,15.40
2019,05,30,08,06,15.40
2019,05,30,08,07,15.50
2019,05,30,08,08,15.60
2019,05,30,08,09,15.60
2019,05,30,08,10,15.60
2019,05,30,08,11,15.60
2019,05,30,08,12,15.60
2019,05,30,08,13,15.70
2019,05,30,08,14,15.70
2019,05,30,08,15,15.70
2019,05,30,08,16,15.80
2019,05,30,08,17,15.80
2019,05,30,08,18,15.80
2019,05,30,08,19,15.80
2019,05,30,08,20,15.80
2019,05,30,08,21,15.80
2019,05,30,08,22,15.90
2019,05,30,08,23,15.90
2019,05,30,08,24,15.90
2019,05,30,08,25,15.90
2019,05,30,08,26,16.00
2019,05,30,08,27,16.00
2019,05,30,08,28,16.10
2019,05,30,08,29,16.20
2019,05,30,08,30,16.20
2019,05,30,08,31,16.20
2019,05,30,08,32,16.20
2019,05,30,08,33,16.20
2019,05,30,08,34,16.30
2019,05,30,08,35,16.30
2019,05,30,08,36,16.30
2019,05,30,08,37,16.30
2019,05,30,08,38,16.40
2019,05,30,08,39,16.40
2019,05,30,08,40,16.40
2019,05,30,08,41,16.40
2019,05,30,08,42,16.40
2019,05,30,08,43,16.40
2019,05,30,08,44,16.40
2019,05,30,08,45,16.50
2019,05,30,08,46,16.50
2019,05,30,08,47,16.60
2019,05,30,08,48,16.70
2019,05,30,08,49,16.80
2019,05,30,08,50,16.80
2019,05,30,08,51,16.90
2019,05,30,08,52,16.90
2019,05,30,08,53,16.90
2019,05,30,08,54,17.00
2019,05,30,08,55,17.00
2019,05,30,08,56,17.00
2019,05,30,08,57,17.00
2019,05,30,08,58,17.00
2019,05,30,08,59,17.00
2019,05,30,09,00,17.10
2019,05,30,09,01,17.10
2019,05,30,09,02,17.20
2019,05,30,09,03,17.20
2019,05,30,09,04,17.30
2019,05,30,09,05,17.30
2019,05,30,09,06,17.20
2019,05,30,09,07,17.20
2019,05,30,09,08,17.20
2019,05,30,09,09,17.20
2019,05,30,09,10,17.20
2019,05,30,09,11,17.20
2019,05,30,09,12,17.30
2019,05,30,09,13,17.30
2019,05,30,09,14,17.40
2019,05,30,09,15,17.40
2019,05,30,09,16,17.40
2019,05,30,09,17,17.50
2019,05,30,09,18,17.50
2019,05,30,09,19,17.60
2019,05,30,09,20,17.60
2019,05,30,09,21,17.60
2019,05,30,09,22,17.60
2019,05,30,09,23,17.60
2019,05,30,09,24,17.60
2019,05,30,09,25,17.60
2019,05,30,09,26,17.60
2019,05,30,09,27,17.60
2019,05,30,09,28,17.60
2019,05,30,09,29,17.60
2019,05,30,09,30,17.70
2019,05,30,09,31,17.80
2019,05,30,09,32,17.90
2019,05,30,09,33,18.00
2019,05,30,09,34,18.10
2019,05,30,09,35,18.10
2019,05,30,09,36,18.20
2019,05,30,09,37,18.30
2019,05,30,09,38,18.30
2019,05,30,09,39,18.30
2019,05,30,09,40,18.30
2019,05,30,09,41,18.20
2019,05,30,09,42,18.20
2019,05,30,09,43,18.20
2019,05,30,09,44,18.20
2019,05,30,09,45,18.10
2019,05,30,09,46,18.10
2019,05,30,09,47,18.10
2019,05,30,09,48,18.10
2019,05,30,09,49,18.10
2019,05,30,09,50,18.10
2019,05,30,09,51,18.00
2019,05,30,09,52,18.00
2019,05,30,09,53,18.00
2019,05,30,09,54,18.00
2019,05,30,09,55,18.00
2019,05,30,09,56,18.00
2019,05,30,09,57,18.10
2019,05,30,09,58,18.10
2019,05,30,09,59,18.20
2019,05,30,10,00,18.30
2019,05,30,10,01,18.30
2019,05,30,10,02,18.40
2019,05,30,10,03,18.40
2019,05,30,10,04,18.40
2019,05,30,10,05,18.40
2019,05,30,10,06,18.30
2019,05,30,10,07,18.30
2019,05,30,10,08,18.30
2019,05,30,10,09,18.30
2019,05,30,10,10,18.30
2019,05,30,10,11,18.30
2019,05,30,10,12,18.30
2019,05,30,10,13,18.40
2019,05,30,10,14,18.40
2019,05,30,10,15,18.30
2019,05,30,10,16,18.30
2019,05,30,10,17,18.30
2019,05,30,10,18,18.30
2019,05,30,10,19,18.30
2019,05,30,10,20,18.30
2019,05,30,10,21,18.40
2019,05,30,10,22,18.40
2019,05,30,10,23,18.40
2019,05,30,10,24,18.50
2019,05,30,10,25,18.60
2019,05,30,10,26,18.70
2019,05,30,10,27,18.80
2019,05,30,10,28,18.80
2019,05,30,10,29,18.80
2019,05,30,10,30,18.80
2019,05,30,10,31,18.80
2019,05,30,10,32,18.80
2019,05,30,10,33,18.70
2019,05,30,10,34,18.70
2019,05,30,10,35,18.70
2019,05,30,10,36,18.70
2019,05,30,10,37,18.60
2019,05,30,10,38,18.60
2019,05,30,10,39,18.60
2019,05,30,10,40,18.60
2019,05,30,10,41,18.60
2019,05,30,10,42,18.60
2019,05,30,10,43,18.60
2019,05,30,10,44,18.60
2019,05,30,10,45,18.60
2019,05,30,10,46,18.70
2019,05,30,10,47,18.70
2019,05,30,10,48,18.70
2019,05,30,10,49,18.70
2019,05,30,10,50,18.70
2019,05,30,10,51,18.70
2019,05,30,10,52,18.70
2019,05,30,10,53,18.70
2019,05,30,10,54,18.60
2019,05,30,10,55,18.60
2019,05,30,10,56,18.60
2019,05,30,10,57,18.60
2019,05,30,10,58,18.70
2019,05,30,10,59,18.80
2019,05,30,11,00,18.90
2019,05,30,11,01,19.00
2019,05,30,11,02,19.10
2019,05,30,11,03,19.10
2019,05,30,11,04,19.10
2019,05,30,11,05,19.10
2019,05,30,11,06,19.20
2019,05,30,11,07,19.20
2019,05,30,11,08,19.30
2019,05,30,11,09,19.40
2019,05,30,11,10,19.40
2019,05,30,11,11,19.40
2019,05,30,11,12,19.40
2019,05,30,11,13,19.50
2019,05,30,11,14,19.60
2019,05,30,11,15,19.60
2019,05,30,11,16,19.70
2019,05,30,11,17,19.80
2019,05,30,11,18,19.80
2019,05,30,11,19,19.90
2019,05,30,11,20,20.00
2019,05,30,11,21,20.00
2019,05,30,11,22,20.10
2019,05,30,11,23,20.10
2019,05,30,11,24,20.20
2019,05,30,11,25,20.30
2019,05,30,11,26,20.40
2019,05,30,11,27,20.50
2019,05,30,11,28,20.50
2019,05,30,11,29,20.50
2019,05,30,11,30,20.60
2019,05,30,11,31,20.60
2019,05,30,11,32,20.70
2019,05,30,11,33,20.70
2019,05,30,11,34,20.80
2019,05,30,11,35,20.80
2019,05,30,11,36,20.80
2019,05,30,11,37,20.80
2019,05,30,11,38,20.80
2019,05,30,11,39,20.70
2019,05,30,11,40,20.70
2019,05,30,11,41,20.80
2019,05,30,11,42,20.80
2019,05,30,11,43,20.90
2019,05,30,11,44,20.90
2019,05,30,11,45,21.00
2019,05,30,11,46,21.10
2019,05,30,11,47,21.10
2019,05,30,11,48,21.10
2019,05,30,11,49,21.10
2019,05,30,11,50,21.10
2019,05,30,11,51,21.10
2019,05,30,11,52,21.10
2019,05,30,11,53,21.20
2019,05,30,11,54,21.20
2019,05,30,11,55,21.20
2019,05,30,11,56,21.20
2019,05,30,11,57,21.20
2019,05,30,11,58,21.30
2019,05,30,11,59,21.30
2019,05,30,12,00,21.30
2019,05,30,12,01,21.30
2019,05,30,12,02,21.30
2019,05,30,12,03,21.40
2019,05,30,12,04,21.40
2019,05,30,12,05,21.50
2019,05,30,12,06,21.60
2019,05,30,12,07,21.70
2019,05,30,12,08,21.70
2019,05,30,12,09,21.80
2019,05,30,12,10,21.90
2019,05,30,12,11,21.90
2019,05,30,12,12,21.90
2019,05,30,12,13,21.90
2019,05,30,12,14,21.90
2019,05,30,12,15,21.90
2019,05,30,12,16,21.90
2019,05,30,12,17,21.90
2019,05,30,12,18,21.90
2019,05,30,12,19,22.00
2019,05,30,12,20,22.00
2019,05,30,12,21,22.10
2019,05,30,12,22,22.20
2019,05,30,12,23,22.10
2019,05,30,12,24,22.10
2019,05,30,12,25,22.10
2019,05,30,12,26,22.00
2019,05,30,12,27,22.00
2019,05,30,12,28,22.10
2019,05,30,12,29,22.20
2019,05,30,12,30,22.30
2019,05,30,12,31,22.40
2019,05,30,12,32,22.40
2019,05,30,12,33,22.50
2019,05,30,12,34,22.60
2019,05,30,12,35,22.80
2019,05,30,12,36,22.90
2019,05,30,12,37,23.00
2019,05,30,12,38,23.00
2019,05,30,12,39,23.10
2019,05,30,12,40,23.20
2019,05,30,12,41,23.20
2019,05,30,12,42,23.20
2019,05,30,12,43,23.20
2019,05,30,12,44,23.30
2019,05,30,12,45,23.30
2019,05,30,12,46,23.40
2019,05,30,12,47,23.40
2019,05,30,12,48,23.30
2019,05,30,12,49,23.30
2019,05,30,12,50,23.30
2019,05,30,12,51,23.40
2019,05,30,12,52,23.40
2019,05,30,12,53,23.40
2019,05,30,12,54,23.50
2019,05,30,12,55,23.50
2019,05,30,12,56,23.50
2019,05,30,12,57,23.70
2019,05,30,12,58,23.80
2019,05,30,12,59,23.80
2019,05,30,13,00,23.80
2019,05,30,13,01,23.80
2019,05,30,13,02,23.80
2019,05,30,13,03,23.80
2019,05,30,13,04,23.90
2019,05,30,13,05,24.00
2019,05,30,13,06,24.00
2019,05,30,13,07,24.10
2019,05,30,13,08,24.10
2019,05,30,13,09,24.10
2019,05,30,13,10,24.10
2019,05,30,13,11,24.10
2019,05,30,13,12,24.20
2019,05,30,13,13,24.30
2019,05,30,13,14,24.30
2019,05,30,13,15,24.20
2019,05,30,13,16,24.30
2019,05,30,13,17,24.40
2019,05,30,13,18,24.40
2019,05,30,13,19,24.50
2019,05,30,13,20,24.60
2019,05,30,13,21,24.70
2019,05,30,13,22,24.80
2019,05,30,13,23,24.80
2019,05,30,13,24,24.80
2019,05,30,13,25,24.80
2019,05,30,13,26,24.70
2019,05,30,13,27,24.60
2019,05,30,13,28,24.50
2019,05,30,13,29,24.40
2019,05,30,13,30,24.30
2019,05,30,13,31,24.30
2019,05,30,13,32,24.20
2019,05,30,13,33,24.20
2019,05,30,13,34,24.20
2019,05,30,13,35,24.20
2019,05,30,13,36,24.20
2019,05,30,13,37,24.30
2019,05,30,13,38,24.30
2019,05,30,13,39,24.30
2019,05,30,13,40,24.30
2019,05,30,13,41,24.30
2019,05,30,13,42,24.30
2019,05,30,13,43,24.20
2019,05,30,13,44,24.20
2019,05,30,13,45,24.20
2019,05,30,13,46,24.20
2019,05,30,13,47,24.30
2019,05,30,13,48,24.30
2019,05,30,13,49,24.30
2019,05,30,13,50,24.40
2019,05,30,13,51,24.50
2019,05,30,13,52,24.60
2019,05,30,13,53,24.70
2019,05,30,13,54,24.70
2019,05,30,13,55,24.80
2019,05,30,13,56,24.80
2019,05,30,13,57,24.80
2019,05,30,13,58,24.80
2019,05,30,13,59,24.70
2019,05,30,14,00,24.60
2019,05,30,14,01,24.50
2019,05,30,14,02,24.50
2019,05,30,14,03,24.40
2019,05,30,14,04,24.40
2019,05,30,14,05,24.30
2019,05,30,14,06,24.30
2019,05,30,14,07,24.20
2019,05,30,14,08,24.30
2019,05,30,14,09,24.40
2019,05,30,14,10,24.40
2019,05,30,14,11,24.50
2019,05,30,14,12,24.50
2019,05,30,14,13,24.50
2019,05,30,14,14,24.60
2019,05,30,14,15,24.70
2019,05,30,14,16,24.80
2019,05,30,14,17,24.90
2019,05,30,14,18,25.00
2019,05,30,14,19,25.10
2019,05,30,14,20,25.20
2019,05,30,14,21,25.30
2019,05,30,14,22,25.30
2019,05,30,14,23,25.50
2019,05,30,14,24,25.60
2019,05,30,14,25,25.60
2019,05,30,14,26,25.50
2019,05,30,14,27,25.40
2019,05,30,14,28,25.30
2019,05,30,14,29,25.30
2019,05,30,14,30,25.40
2019,05,30,14,31,25.40
2019,05,30,14,32,25.50
2019,05,30,14,33,25.40
2019,05,30,14,34,25.40
2019,05,30,14,35,25.40
2019,05,30,14,36,25.40
2019,05,30,14,37,25.40
2019,05,30,14,38,25.40
2019,05,30,14,39,25.40
2019,05,30,14,40,25.40
2019,05,30,14,41,25.40
2019,05,30,14,42,25.50
2019,05,30,14,43,25.60
2019,05,30,14,44,25.60
2019,05,30,14,45,25.60
2019,05,30,14,46,25.50
2019,05,30,14,47,25.40
2019,05,30,14,48,25.40
2019,05,30,14,49,25.50
2019,05,30,14,50,25.60
2019,05,30,14,51,25.60
2019,05,30,14,52,25.60
2019,05,30,14,53,25.60
2019,05,30,14,54,25.60
2019,05,30,14,55,25.60
2019,05,30,14,56,25.50
2019,05,30,14,57,25.50
2019,05,30,14,58,25.40
2019,05,30,14,59,25.30
2019,05,30,15,00,25.30
2019,05,30,15,01,25.30
2019,05,30,15,02,25.30
2019,05,30,15,03,25.30
2019,05,30,15,04,25.30
2019,05,30,15,05,25.30
2019,05,30,15,06,25.30
2019,05,30,15,07,25.30
2019,05,30,15,08,25.30
2019,05,30,15,09,25.30
2019,05,30,15,10,25.30
2019,05,30,15,11,25.30
2019,05,30,15,12,25.30
2019,05,30,15,13,25.30
2019,05,30,15,14,25.40
2019,05,30,15,15,25.50
2019,05,30,15,16,25.70
2019,05,30,15,17,25.80
2019,05,30,15,18,26.00
2019,05,30,15,19,26.10
2019,05,30,15,20,26.10
2019,05,30,15,21,26.20
2019,05,30,15,22,26.20
2019,05,30,15,23,26.10
2019,05,30,15,24,26.00
2019,05,30,15,25,25.90
2019,05,30,15,26,25.90
2019,05,30,15,27,25.80
2019,05,30,15,28,25.80
2019,05,30,15,29,25.80
2019,05,30,15,30,25.80
2019,05,30,15,31,25.70
2019,05,30,15,32,25.70
2019,05,30,15,33,25.70
2019,05,30,15,34,25.80
2019,05,30,15,35,25.80
2019,05,30,15,36,25.90
2019,05,30,15,37,26.00
2019,05,30,15,38,26.10
2019,05,30,15,39,26.10
2019,05,30,15,40,26.10
2019,05,30,15,41,26.10
2019,05,30,15,42,26.10
2019,05,30,15,43,26.10
2019,05,30,15,44,26.20
2019,05,30,15,45,26.20
2019,05,30,15,46,26.20
2019,05,30,15,47,26.10
2019,05,30,15,48,26.10
2019,05,30,15,49,26.10
2019,05,30,15,50,26.20
2019,05,30,15,51,26.20
2019,05,30,15,52,26.20
2019,05,30,15,53,26.30
2019,05,30,15,54,26.40
2019,05,30,15,55,26.50
2019,05,30,15,56,26.60
2019,05,30,15,57,26.70
2019,05,30,15,58,26.80
2019,05,30,15,59,26.90
2019,05,30,16,00,27.00
2019,05,30,16,01,27.10
2019,05,30,16,02,27.10
2019,05,30,16,03,27.10
2019,05,30,16,04,27.10
2019,05,30,16,05,27.10
2019,05,30,16,06,27.10
2019,05,30,16,07,27.10
2019,05,30,16,08,27.20
2019,05,30,16,09,27.30
2019,05,30,16,10,27.30
2019,05,30,16,11,27.30
2019,05,30,16,12,27.30
2019,05,30,16,13,27.30
2019,05,30,16,14,27.40
2019,05,30,16,15,27.40
2019,05,30,16,16,27.50
2019,05,30,16,17,27.50
2019,05,30,16,18,27.50
2019,05,30,16,19,27.50
2019,05,30,16,20,27.40
2019,05,30,16,21,27.30
2019,05,30,16,22,27.30
2019,05,30,16,23,27.30
2019,05,30,16,24,27.30
2019,05,30,16,25,27.30
2019,05,30,16,26,27.30
2019,05,30,16,27,27.30
2019,05,30,16,28,27.30
2019,05,30,16,29,27.20
2019,05,30,16,30,27.20
2019,05,30,16,31,27.10
2019,05,30,16,32,27.10
2019,05,30,16,33,27.10
2019,05,30,16,34,27.10
2019,05,30,16,35,27.00
2019,05,30,16,36,27.10
2019,05,30,16,37,27.10
2019,05,30,16,38,27.10
2019,05,30,16,39,27.10
2019,05,30,16,40,27.20
2019,05,30,16,41,27.20
2019,05,30,16,42,27.20
2019,05,30,16,43,27.20
2019,05,30,16,44,27.20
2019,05,30,16,45,27.20
2019,05,30,16,46,27.20
2019,05,30,16,47,27.20
2019,05,30,16,48,27.20
2019,05,30,16,49,27.20
2019,05,30,16,50,27.30
2019,05,30,16,51,27.30
2019,05,30,16,52,27.40
2019,05,30,16,53,27.40
2019,05,30,16,54,27.50
2019,05,30,16,55,27.60
2019,05,30,16,56,27.80
2019,05,30,16,57,27.80
2019,05,30,16,58,27.90
2019,05,30,16,59,27.90
2019,05,30,17,00,27.90
2019,05,30,17,01,27.90
2019,05,30,17,02,27.80
2019,05,30,17,03,27.80
2019,05,30,17,04,27.70
2019,05,30,17,05,27.70
2019,05,30,17,06,27.60
2019,05,30,17,07,27.60
2019,05,30,17,08,27.60
2019,05,30,17,09,27.50
2019,05,30,17,10,27.50
2019,05,30,17,11,27.50
2019,05,30,17,12,27.50
2019,05,30,17,13,27.40
2019,05,30,17,14,27.30
2019,05,30,17,15,27.30
2019,05,30,17,16,27.30
2019,05,30,17,17,27.30
2019,05,30,17,18,27.30
2019,05,30,17,19,27.30